Starlink 35325

operational
NORAD ID: 66079 Int'l Des: 2025-235 Owner: SPXS Country: US Constellation: starlink
NOTLE

Über Starlink 35325

Beschreibung wird geladen...

Live-Position

3D-Globus wird geladen...

Nächste Überflüge

Höhenverlauf

Altitude vs Time

uPlot chart will show altitude changes over time

Zweizeiliger Elementsatz

1 66079C 25235Y 25293.06715278 .00528600 00000+0 78053-3 0 2935
2 66079 53.1589 188.8574 0005489 295.1977 195.9829 16.03682279 16
Epoch: 20. Okt. 2025 • Age: 19 hours

Aktueller Status

Höhe 264.1 km
Geschwindigkeit 7.75 km/s
Subsatellitenpunkt 28.50°N, 108°W
Startdatum 19. Okt. 2025
Alter 1 days
Typ internet

Technische Details

Klassifizierung Payload
Masse 575.00 kg
Trockenmasse 530.00 kg
Gesamtmasse 575.00 kg
Länge 0.30 m
Durchmesser 4.10 m
Spannweite 29.00 m
Form Box + pan
Hersteller SPXS
Bus-Typ Starlink V2MO
Phasenstatus In Orbit
Besitzer/Staat SPXS/US

Große Konstellationen

Loading constellations...